This demonstration page uses our WeatherBlox Daily Observations layout. Learn more.

Left ArrowRight Arrow

41.12389, -100.76542

Hourly Observations for May 26, 2017

Temp ( °F °C ) Dew Point ( °F °C ) Humidity (%) Winds ( mph kmh ) Pressure ( in mb ) Visibility ( mi km ) Precip ( " mm )
12:53 am 00:53 Clear 58 14.4 55 12.8 90 90 NNE 10 17 29.66 1004 10 16 0.00 0.03
1:53 am 01:53 Clear 56 13.3 54 12.2 93 93 Calm 29.66 1004 10 16 0.00 0.00
2:53 am 02:53 Clear 54 12.2 52 11.1 93 93 NNW 6 9 29.70 1006 10 16 0.00 0.00
3:53 am 03:53 Mostly Cloudy 55 12.8 53 11.7 93 93 NNW 7 11 29.77 1008 10 16 0.00 0.00
4:17 am 04:17 Partly Cloudy 55 12.8 49 9.4 80 80 N 9 15 29.80 1009 10 16 0.00 0.00
4:53 am 04:53 Partly Cloudy 53 11.7 46 7.8 77 77 N 9 15 29.78 1008 10 16 0.00 0.00
5:53 am 05:53 Cloudy 52 11.1 45 7.2 77 77 NNW 8 13 29.82 1010 10 16 0.00 0.00
6:53 am 06:53 Mostly Cloudy 52 11.1 44 6.7 75 75 NNW 7 11 29.85 1011 10 16 0.00 0.00
7:53 am 07:53 Cloudy 54 12.2 44 6.7 69 69 N 13 20 29.87 1011 10 16 0.00 0.00
8:53 am 08:53 Sunny 58 14.4 44 6.7 60 60 N 15 24 29.87 1011 10 16 0.00 0.00
9:53 am 09:53 Sunny 60 15.6 43 6.1 53 53 N 10 17 29.88 1012 10 16 0.00 0.00
10:53 am 10:53 Sunny 64 17.8 44 6.7 48 48 N 8 13 29.89 1012 10 16 0.00 0.00
11:53 am 11:53 Sunny 67 19.4 43 6.1 42 42 N 13 20 29.88 1012 10 16 0.00 0.00
12:53 pm 12:53 Sunny 69 20.6 44 6.7 41 41 NNE 7 11 29.88 1012 10 16 0.00 0.00
1:53 pm 13:53 Sunny 71 21.7 43 6.1 36 36 VRB 3 6 29.86 1011 10 16 0.00 0.00
2:53 pm 14:53 Sunny 73 22.8 44 6.7 35 35 undefined N/A 29.83 1010 10 16 0.00 0.00
3:53 pm 15:53 Sunny 73 22.8 46 7.8 38 38 SSE 7 11 29.83 1010 10 16 0.00 0.00
4:53 pm 16:53 Sunny 74 23.3 42 5.6 32 32 undefined N/A 29.81 1010 10 16 0.00 0.00
5:53 pm 17:53 Sunny 75 23.9 46 7.8 36 36 E 8 13 29.81 1009 10 16 0.00 0.00
6:53 pm 18:53 Sunny 71 21.7 48 8.9 44 44 ESE 9 15 29.82 1010 10 16 0.00 0.00
7:53 pm 19:53 Sunny 68 20 53 11.7 59 59 ESE 6 9 29.83 1010 10 16 0.00 0.00
8:53 pm 20:53 Mostly Cloudy 65 18.3 52 11.1 63 63 E 7 11 29.83 1010 10 16 0.00 0.00
9:53 pm 21:53 Clear 63 17.2 50 10 63 63 E 6 9 29.83 1010 10 16 0.00 0.00
10:53 pm 22:53 Mostly Clear 61 16.1 51 10.6 70 70 ESE 9 15 29.83 1010 10 16 0.00 0.00
11:53 pm 23:53 Mostly Clear 64 17.8 50 10 60 60 SE 9 15 29.85 1011 10 16 0.00 0.00

Powered by AerisWeather